RYR86KM EGGW-LEMI

Flight info

Callsign RYR86KM
Flight time 2h 13m
Altitude 35000
Route RODNI N27 ICTAM Q63 CPT N859 VAPID UN859 BENAR/N0427F330 UN859 SOPIL DCT BALAN DCT LMG/N0440F370 DCT PIMQO DCT AGN DCT ANETO DCT POSSY DCT XIMPE DCT RIMES N860 VLC L34 ALT
Aircraft B738/M-SDE3FGILRWY/SB1

Departure

Time 2026-04-30 20:04
Airport London Luton Airport (EGGW)

Arrival

Time 2026-04-30 22:18
Airport Region of Murcia International Airport (LEMI)
Time Latitude Longitude Altitude Speed Heading
2026-04-30 19:30 51.88053 -0.37790 522 ft 0 kts 128°
2026-04-30 19:54 51.88055 -0.37794 522 ft 3 kts 128°
2026-04-30 19:54 51.88069 -0.37821 522 ft 4 kts 133°
2026-04-30 19:55 51.88088 -0.37838 522 ft 4 kts 194°
2026-04-30 19:55 51.88109 -0.37819 522 ft 2 kts 219°
2026-04-30 19:55 51.88110 -0.37818 522 ft 0 kts 219°
2026-04-30 19:58 51.88102 -0.37828 522 ft 4 kts 219°
2026-04-30 19:59 51.88068 -0.37871 522 ft 8 kts 218°
2026-04-30 19:59 51.88023 -0.37927 522 ft 8 kts 218°
2026-04-30 19:59 51.87904 -0.38015 522 ft 10 kts 180°
2026-04-30 20:00 51.87839 -0.37978 522 ft 10 kts 145°
2026-04-30 20:00 51.87795 -0.37895 522 ft 10 kts 118°
2026-04-30 20:00 51.87761 -0.37780 522 ft 12 kts 115°
2026-04-30 20:00 51.87722 -0.37645 518 ft 15 kts 114°
2026-04-30 20:01 51.87571 -0.37459 521 ft 15 kts 186°
2026-04-30 20:01 51.87501 -0.37557 521 ft 14 kts 252°
2026-04-30 20:01 51.87474 -0.37707 522 ft 14 kts 254°
2026-04-30 20:02 51.87423 -0.37993 523 ft 13 kts 242°
2026-04-30 20:02 51.87351 -0.38079 522 ft 13 kts 206°
2026-04-30 20:03 51.87247 -0.38091 523 ft 3 kts 83°
2026-04-30 20:03 51.87248 -0.38087 523 ft 0 kts 75°
2026-04-30 20:03 51.87259 -0.38022 523 ft 29 kts 74°
2026-04-30 20:03 51.87385 -0.37296 521 ft 103 kts 73°
2026-04-30 20:04 51.87638 -0.35840 535 ft 161 kts 76°
2026-04-30 20:04 51.87961 -0.34056 1216 ft 169 kts 75°
2026-04-30 20:04 51.88305 -0.32187 2010 ft 178 kts 80°
2026-04-30 20:05 51.89070 -0.27777 2879 ft 225 kts 81°
2026-04-30 20:05 51.89079 -0.25183 3282 ft 240 kts 113°
2026-04-30 20:05 51.86472 -0.22447 3765 ft 244 kts 185°
2026-04-30 20:06 51.84925 -0.23614 3989 ft 256 kts 219°
2026-04-30 20:06 51.84028 -0.26133 4004 ft 267 kts 250°
2026-04-30 20:06 51.83609 -0.29085 4020 ft 273 kts 253°
2026-04-30 20:06 51.83198 -0.32093 4706 ft 271 kts 253°
2026-04-30 20:07 51.82764 -0.35044 5802 ft 271 kts 253°
2026-04-30 20:07 51.82297 -0.38026 6684 ft 277 kts 252°
2026-04-30 20:07 51.81309 -0.44147 8447 ft 284 kts 252°
2026-04-30 20:08 51.80829 -0.47257 9350 ft 288 kts 253°
2026-04-30 20:08 51.80358 -0.50376 10208 ft 292 kts 252°
2026-04-30 20:08 51.79865 -0.53631 10746 ft 308 kts 252°
2026-04-30 20:08 51.79327 -0.57145 10938 ft 335 kts 253°
2026-04-30 20:09 51.78755 -0.60888 11399 ft 350 kts 253°
2026-04-30 20:09 51.78169 -0.64734 12115 ft 355 kts 253°
2026-04-30 20:09 51.76973 -0.72547 13706 ft 362 kts 252°
2026-04-30 20:10 51.75260 -0.80173 15067 ft 362 kts 229°
2026-04-30 20:10 51.73560 -0.83148 15810 ft 361 kts 221°
2026-04-30 20:10 51.71752 -0.85993 16484 ft 365 kts 220°
2026-04-30 20:11 51.68070 -0.91786 17796 ft 375 kts 221°
2026-04-30 20:11 51.66212 -0.94757 18499 ft 377 kts 221°
2026-04-30 20:11 51.64320 -0.97791 19110 ft 380 kts 221°
2026-04-30 20:12 51.60545 -1.03833 20382 ft 385 kts 220°
2026-04-30 20:12 51.58636 -1.06881 21007 ft 387 kts 220°
2026-04-30 20:12 51.56718 -1.09942 21626 ft 390 kts 220°
2026-04-30 20:13 51.54787 -1.13018 22222 ft 393 kts 220°
2026-04-30 20:13 51.52832 -1.16127 22817 ft 396 kts 220°
2026-04-30 20:13 51.50678 -1.18834 23375 ft 391 kts 203°
2026-04-30 20:13 51.48133 -1.20193 23941 ft 386 kts 186°
2026-04-30 20:14 51.46359 -1.20417 24279 ft 384 kts 177°
2026-04-30 20:14 51.42848 -1.19442 24859 ft 387 kts 158°
2026-04-30 20:14 51.41267 -1.18132 25145 ft 389 kts 148°
2026-04-30 20:14 51.38965 -1.15825 25609 ft 391 kts 150°
2026-04-30 20:15 51.36626 -1.13544 26044 ft 395 kts 149°
2026-04-30 20:15 51.34263 -1.11310 26469 ft 398 kts 151°
2026-04-30 20:15 51.31795 -1.09228 26917 ft 401 kts 154°
2026-04-30 20:15 51.29269 -1.07304 27344 ft 404 kts 155°
2026-04-30 20:16 51.26701 -1.05435 27770 ft 407 kts 155°
2026-04-30 20:16 51.24116 -1.03572 28160 ft 410 kts 155°
2026-04-30 20:16 51.21503 -1.01682 28548 ft 413 kts 155°
2026-04-30 20:16 51.18879 -0.99776 28938 ft 416 kts 155°
2026-04-30 20:17 51.16243 -0.97859 29303 ft 419 kts 155°
2026-04-30 20:17 51.13577 -0.95921 29671 ft 422 kts 155°
2026-04-30 20:17 51.10901 -0.93977 30016 ft 425 kts 155°
2026-04-30 20:17 51.08205 -0.92022 30362 ft 426 kts 155°
2026-04-30 20:18 51.05507 -0.90068 30783 ft 425 kts 155°
2026-04-30 20:18 51.02819 -0.88125 31226 ft 424 kts 155°
2026-04-30 20:18 51.00138 -0.86188 31624 ft 423 kts 155°
2026-04-30 20:18 50.97455 -0.84253 31980 ft 423 kts 155°
2026-04-30 20:19 50.94773 -0.82321 32349 ft 423 kts 155°
2026-04-30 20:19 50.92104 -0.80400 32742 ft 422 kts 155°
2026-04-30 20:19 50.89424 -0.78474 33113 ft 422 kts 155°
2026-04-30 20:19 50.86753 -0.76558 33458 ft 422 kts 155°
2026-04-30 20:20 50.84155 -0.74406 33795 ft 422 kts 148°
2026-04-30 20:20 50.81687 -0.71902 34168 ft 420 kts 147°
2026-04-30 20:20 50.79244 -0.69382 34446 ft 420 kts 147°
2026-04-30 20:20 50.76825 -0.66883 34669 ft 421 kts 147°
2026-04-30 20:21 50.74331 -0.64319 34918 ft 422 kts 147°
2026-04-30 20:21 50.71867 -0.61799 35164 ft 422 kts 147°
2026-04-30 20:21 50.69384 -0.59272 35144 ft 426 kts 147°
2026-04-30 20:22 50.64405 -0.54228 35175 ft 428 kts 148°
2026-04-30 20:22 50.59317 -0.49095 35160 ft 433 kts 148°
2026-04-30 20:23 50.54284 -0.44029 35160 ft 433 kts 148°
2026-04-30 20:23 50.49210 -0.38935 35159 ft 433 kts 148°
2026-04-30 20:24 50.44134 -0.33853 35158 ft 433 kts 148°
2026-04-30 20:24 50.39059 -0.28783 35155 ft 432 kts 148°
2026-04-30 20:25 50.31444 -0.21201 35154 ft 432 kts 148°
2026-04-30 20:26 50.23832 -0.13650 35150 ft 432 kts 148°
2026-04-30 20:26 50.16221 -0.06128 35153 ft 432 kts 148°
2026-04-30 20:27 50.05473 0.01943 35160 ft 432 kts 165°
2026-04-30 20:28 49.93782 0.06393 35145 ft 433 kts 165°
2026-04-30 20:30 49.79093 0.12139 36071 ft 434 kts 165°
2026-04-30 20:30 49.70279 0.15576 36674 ft 436 kts 165°
2026-04-30 20:31 49.61417 0.19100 37148 ft 440 kts 165°
2026-04-30 20:32 49.46716 0.25027 37151 ft 433 kts 165°
2026-04-30 20:33 49.37991 0.28515 37157 ft 432 kts 165°
2026-04-30 20:34 49.29258 0.32008 37161 ft 433 kts 164°
2026-04-30 20:35 49.20512 0.35704 37157 ft 437 kts 164°
2026-04-30 20:35 49.11690 0.39432 37148 ft 440 kts 164°
2026-04-30 20:36 49.05768 0.41914 37148 ft 442 kts 164°
2026-04-30 20:37 48.96846 0.45639 37143 ft 444 kts 164°
2026-04-30 20:37 48.90879 0.48123 37146 ft 445 kts 164°
2026-04-30 20:38 48.84916 0.50601 37142 ft 444 kts 164°
2026-04-30 20:38 48.78952 0.53072 37140 ft 444 kts 164°
2026-04-30 20:39 48.70005 0.56598 37144 ft 442 kts 165°
2026-04-30 20:40 48.61041 0.60087 37142 ft 441 kts 165°
2026-04-30 20:40 48.55101 0.62406 37143 ft 441 kts 165°
2026-04-30 20:41 48.46254 0.65930 37136 ft 440 kts 164°
2026-04-30 20:41 48.40346 0.68349 37140 ft 440 kts 164°
2026-04-30 20:42 48.34433 0.70754 37142 ft 441 kts 164°
2026-04-30 20:43 48.25545 0.74347 37141 ft 441 kts 164°
2026-04-30 20:43 48.19599 0.76706 37142 ft 442 kts 165°
2026-04-30 20:44 48.10667 0.80204 37137 ft 443 kts 165°
2026-04-30 20:45 47.98721 0.84879 37141 ft 444 kts 165°
2026-04-30 20:45 47.92733 0.87215 37140 ft 445 kts 165°
2026-04-30 20:46 47.80746 0.91875 37143 ft 445 kts 165°
2026-04-30 20:47 47.71756 0.95353 37145 ft 445 kts 165°
2026-04-30 20:48 47.62765 0.98820 37140 ft 445 kts 165°
2026-04-30 20:48 47.56776 1.01124 37145 ft 444 kts 165°
2026-04-30 20:49 47.50787 1.03422 37142 ft 444 kts 165°
2026-04-30 20:50 47.41804 1.06446 37144 ft 444 kts 175°
2026-04-30 20:50 47.35625 1.06412 37149 ft 444 kts 181°
2026-04-30 20:51 47.29444 1.06163 37155 ft 444 kts 181°
2026-04-30 20:51 47.20171 1.05905 37153 ft 444 kts 180°
2026-04-30 20:52 47.13996 1.05764 37153 ft 444 kts 180°
2026-04-30 20:53 47.05722 1.05573 37153 ft 444 kts 180°
2026-04-30 20:53 46.99532 1.05402 37161 ft 445 kts 181°
2026-04-30 20:54 46.90262 1.04986 37160 ft 445 kts 181°
2026-04-30 20:55 46.80928 1.04574 37163 ft 445 kts 181°
2026-04-30 20:55 46.74735 1.04078 37163 ft 445 kts 185°
2026-04-30 20:56 46.65475 1.02760 37164 ft 446 kts 185°
2026-04-30 20:57 46.56233 1.01556 37165 ft 447 kts 185°
2026-04-30 20:57 46.50036 1.00769 37174 ft 447 kts 185°
2026-04-30 20:58 46.40678 0.99592 37172 ft 448 kts 185°
2026-04-30 20:58 46.34456 0.98812 37177 ft 449 kts 185°
2026-04-30 20:59 46.25104 0.97641 37181 ft 450 kts 185°
2026-04-30 21:00 46.12657 0.96090 37179 ft 451 kts 185°
2026-04-30 21:01 46.03249 0.94921 37183 ft 450 kts 185°
2026-04-30 21:02 45.93896 0.93763 37187 ft 449 kts 185°
2026-04-30 21:02 45.87669 0.92994 37187 ft 449 kts 185°
2026-04-30 21:03 45.81461 0.92230 37184 ft 448 kts 185°
2026-04-30 21:03 45.75255 0.91468 37182 ft 447 kts 186°
2026-04-30 21:04 45.69063 0.90709 37184 ft 446 kts 186°
2026-04-30 21:04 45.59785 0.89575 37184 ft 446 kts 186°
2026-04-30 21:05 45.53588 0.88820 37187 ft 447 kts 186°
2026-04-30 21:05 45.47395 0.88066 37182 ft 447 kts 186°
2026-04-30 21:06 45.41238 0.87319 37188 ft 447 kts 186°
2026-04-30 21:06 45.35027 0.86566 37184 ft 448 kts 186°
2026-04-30 21:07 45.28807 0.85815 37188 ft 449 kts 187°
2026-04-30 21:07 45.22575 0.85063 37184 ft 449 kts 187°
2026-04-30 21:08 45.16343 0.84313 37183 ft 450 kts 187°
2026-04-30 21:08 45.10092 0.83563 37185 ft 451 kts 187°
2026-04-30 21:09 45.03834 0.82814 37181 ft 451 kts 187°
2026-04-30 21:09 44.97572 0.82066 37180 ft 452 kts 187°
2026-04-30 21:10 44.91309 0.81319 37185 ft 452 kts 188°
2026-04-30 21:10 44.84988 0.80567 37180 ft 453 kts 188°
2026-04-30 21:11 44.78713 0.79822 37184 ft 453 kts 188°
2026-04-30 21:11 44.72437 0.79078 37179 ft 452 kts 188°
2026-04-30 21:12 44.66170 0.78338 37183 ft 452 kts 188°
2026-04-30 21:12 44.59917 0.77600 37178 ft 451 kts 188°
2026-04-30 21:13 44.53703 0.76869 37176 ft 450 kts 188°
2026-04-30 21:13 44.47464 0.76136 37173 ft 450 kts 188°
2026-04-30 21:14 44.41144 0.75395 37178 ft 449 kts 189°
2026-04-30 21:14 44.34888 0.74664 37174 ft 448 kts 189°
2026-04-30 21:15 44.28673 0.73938 37181 ft 448 kts 189°
2026-04-30 21:15 44.22458 0.73214 37185 ft 448 kts 189°
2026-04-30 21:16 44.16250 0.72493 37183 ft 448 kts 189°
2026-04-30 21:16 44.10040 0.71772 37183 ft 448 kts 189°
2026-04-30 21:17 44.03829 0.71053 37179 ft 448 kts 189°
2026-04-30 21:17 43.97629 0.70337 37170 ft 447 kts 189°
2026-04-30 21:18 43.91424 0.69621 37169 ft 447 kts 189°
2026-04-30 21:18 43.85186 0.68905 37173 ft 447 kts 189°
2026-04-30 21:19 43.78985 0.68194 37167 ft 447 kts 189°
2026-04-30 21:19 43.72778 0.67483 37172 ft 447 kts 189°
2026-04-30 21:20 43.66582 0.66775 37173 ft 447 kts 189°
2026-04-30 21:20 43.60388 0.66069 37166 ft 447 kts 189°
2026-04-30 21:21 43.54213 0.65366 37173 ft 447 kts 189°
2026-04-30 21:22 43.44903 0.64309 37167 ft 446 kts 189°
2026-04-30 21:23 43.32557 0.62913 37172 ft 445 kts 189°
2026-04-30 21:23 43.23301 0.61870 37175 ft 444 kts 189°
2026-04-30 21:24 43.17162 0.61179 37172 ft 444 kts 189°
2026-04-30 21:24 43.12017 0.60602 37179 ft 444 kts 189°
2026-04-30 21:25 43.02789 0.59569 37186 ft 443 kts 189°
2026-04-30 21:26 42.93563 0.58539 37183 ft 444 kts 189°
2026-04-30 21:27 42.84303 0.57818 37196 ft 446 kts 183°
2026-04-30 21:27 42.78090 0.58109 37194 ft 446 kts 181°
2026-04-30 21:28 42.68787 0.58640 37195 ft 446 kts 181°
2026-04-30 21:29 42.59459 0.59168 37187 ft 448 kts 181°
2026-04-30 21:30 42.43832 0.59987 37175 ft 448 kts 181°
2026-04-30 21:31 42.28275 0.60624 37164 ft 445 kts 187°
2026-04-30 21:32 42.19283 0.58178 37171 ft 438 kts 198°
2026-04-30 21:32 42.13445 0.56066 37165 ft 437 kts 197°
2026-04-30 21:33 42.04619 0.53072 37150 ft 436 kts 197°
2026-04-30 21:34 41.98744 0.51124 37140 ft 435 kts 196°
2026-04-30 21:34 41.89897 0.48402 37130 ft 434 kts 195°
2026-04-30 21:35 41.84005 0.46616 37141 ft 434 kts 195°
2026-04-30 21:35 41.78115 0.44821 37129 ft 434 kts 195°
2026-04-30 21:36 41.72223 0.43022 37132 ft 434 kts 195°
2026-04-30 21:37 41.60441 0.39431 37138 ft 434 kts 195°
2026-04-30 21:37 41.54549 0.37641 37128 ft 434 kts 195°
2026-04-30 21:38 41.48662 0.35856 37123 ft 434 kts 195°
2026-04-30 21:38 41.42777 0.34075 37121 ft 434 kts 195°
2026-04-30 21:39 41.36888 0.32296 37132 ft 433 kts 195°
2026-04-30 21:39 41.31003 0.30522 37120 ft 433 kts 195°
2026-04-30 21:40 41.25129 0.28753 37124 ft 433 kts 195°
2026-04-30 21:40 41.19254 0.26988 37118 ft 432 kts 195°
2026-04-30 21:41 41.13389 0.25229 37119 ft 432 kts 195°
2026-04-30 21:41 41.07535 0.23476 37128 ft 431 kts 195°
2026-04-30 21:42 41.01677 0.21726 37129 ft 431 kts 195°
2026-04-30 21:42 40.95832 0.19985 37128 ft 430 kts 195°
2026-04-30 21:43 40.89993 0.18247 37124 ft 430 kts 195°
2026-04-30 21:43 40.84159 0.16513 37132 ft 429 kts 195°
2026-04-30 21:44 40.78332 0.14785 37136 ft 429 kts 195°
2026-04-30 21:44 40.72558 0.13075 37132 ft 428 kts 195°
2026-04-30 21:45 40.66745 0.11356 37135 ft 428 kts 195°
2026-04-30 21:45 40.60934 0.09641 37149 ft 428 kts 195°
2026-04-30 21:46 40.55128 0.07931 37153 ft 427 kts 195°
2026-04-30 21:46 40.49325 0.06225 37145 ft 427 kts 195°
2026-04-30 21:47 40.43525 0.04524 37148 ft 427 kts 195°
2026-04-30 21:47 40.37731 0.02827 37152 ft 427 kts 195°
2026-04-30 21:48 40.31898 0.01121 37156 ft 426 kts 195°
2026-04-30 21:48 40.26114 -0.00568 37157 ft 425 kts 195°
2026-04-30 21:49 40.20379 -0.02239 37156 ft 425 kts 195°
2026-04-30 21:49 40.14585 -0.03924 37156 ft 424 kts 195°
2026-04-30 21:50 40.08872 -0.05582 37147 ft 423 kts 195°
2026-04-30 21:50 40.03141 -0.07245 37150 ft 422 kts 195°
2026-04-30 21:51 39.97408 -0.08904 37140 ft 422 kts 195°
2026-04-30 21:51 39.91678 -0.10560 37143 ft 422 kts 195°
2026-04-30 21:52 39.85946 -0.12213 37139 ft 422 kts 195°
2026-04-30 21:52 39.80211 -0.13863 37143 ft 423 kts 195°
2026-04-30 21:53 39.74465 -0.15514 37145 ft 423 kts 195°
2026-04-30 21:53 39.71584 -0.16341 37035 ft 426 kts 195°
2026-04-30 21:53 39.68670 -0.17178 36537 ft 429 kts 195°
2026-04-30 21:54 39.65762 -0.18010 35941 ft 427 kts 195°
2026-04-30 21:54 39.62865 -0.18839 35310 ft 427 kts 195°
2026-04-30 21:54 39.59960 -0.19670 34646 ft 427 kts 195°
2026-04-30 21:54 39.57052 -0.20502 33959 ft 428 kts 195°
2026-04-30 21:55 39.54143 -0.21333 33187 ft 429 kts 195°
2026-04-30 21:55 39.51227 -0.22165 32581 ft 427 kts 195°
2026-04-30 21:55 39.48343 -0.22987 32073 ft 422 kts 195°
2026-04-30 21:55 39.45487 -0.23800 31570 ft 419 kts 195°
2026-04-30 21:56 39.42649 -0.24607 31084 ft 415 kts 195°
2026-04-30 21:56 39.39840 -0.25404 30602 ft 412 kts 195°
2026-04-30 21:56 39.37041 -0.26198 30109 ft 410 kts 195°
2026-04-30 21:56 39.34302 -0.26976 29557 ft 407 kts 195°
2026-04-30 21:57 39.31556 -0.27754 29028 ft 403 kts 195°
2026-04-30 21:57 39.28822 -0.28529 28535 ft 399 kts 195°
2026-04-30 21:57 39.26122 -0.29293 28041 ft 396 kts 195°
2026-04-30 21:57 39.23447 -0.30050 27555 ft 392 kts 195°
2026-04-30 21:58 39.20792 -0.30801 27083 ft 389 kts 194°
2026-04-30 21:58 39.18156 -0.31546 26611 ft 386 kts 194°
2026-04-30 21:58 39.15546 -0.32283 26143 ft 383 kts 194°
2026-04-30 21:58 39.12951 -0.33016 25677 ft 381 kts 194°
2026-04-30 21:59 39.10371 -0.33743 25226 ft 378 kts 194°
2026-04-30 21:59 39.07807 -0.34466 24754 ft 377 kts 194°
2026-04-30 21:59 39.05247 -0.35187 24295 ft 375 kts 194°
2026-04-30 22:00 39.00171 -0.36615 23295 ft 372 kts 194°
2026-04-30 22:00 38.95140 -0.38027 22319 ft 367 kts 194°
2026-04-30 22:00 38.92673 -0.38719 21871 ft 364 kts 194°
2026-04-30 22:01 38.90164 -0.39449 21279 ft 363 kts 197°
2026-04-30 22:01 38.87738 -0.40460 20617 ft 366 kts 200°
2026-04-30 22:01 38.85373 -0.41554 20103 ft 365 kts 201°
2026-04-30 22:01 38.82968 -0.42690 19639 ft 362 kts 201°
2026-04-30 22:02 38.80606 -0.43802 19178 ft 360 kts 201°
2026-04-30 22:02 38.78253 -0.44899 18713 ft 359 kts 200°
2026-04-30 22:02 38.75910 -0.45981 18224 ft 358 kts 200°
2026-04-30 22:02 38.73607 -0.47036 17746 ft 355 kts 200°
2026-04-30 22:03 38.71287 -0.48095 17276 ft 352 kts 200°
2026-04-30 22:03 38.68991 -0.49139 16817 ft 349 kts 200°
2026-04-30 22:03 38.66710 -0.50174 16346 ft 347 kts 200°
2026-04-30 22:03 38.64436 -0.51205 15848 ft 346 kts 200°
2026-04-30 22:04 38.62172 -0.52230 15400 ft 344 kts 200°
2026-04-30 22:04 38.59928 -0.53246 14962 ft 341 kts 200°
2026-04-30 22:04 38.55483 -0.55255 14092 ft 337 kts 200°
2026-04-30 22:05 38.53280 -0.56250 13625 ft 335 kts 200°
2026-04-30 22:05 38.51088 -0.57240 13160 ft 333 kts 200°
2026-04-30 22:05 38.48913 -0.58221 12718 ft 330 kts 200°
2026-04-30 22:05 38.46760 -0.59192 12293 ft 328 kts 200°
2026-04-30 22:06 38.44616 -0.60158 11868 ft 326 kts 200°
2026-04-30 22:06 38.40364 -0.62071 11039 ft 322 kts 200°
2026-04-30 22:06 38.38256 -0.63019 10622 ft 321 kts 200°
2026-04-30 22:07 38.36170 -0.63956 10405 ft 313 kts 200°
2026-04-30 22:07 38.34142 -0.64867 10215 ft 305 kts 200°
2026-04-30 22:07 38.32174 -0.65750 10086 ft 295 kts 200°
2026-04-30 22:07 38.30263 -0.66607 9925 ft 288 kts 200°
2026-04-30 22:08 38.28992 -0.67177 9688 ft 287 kts 200°
2026-04-30 22:08 38.27107 -0.68022 9380 ft 285 kts 200°
2026-04-30 22:08 38.25242 -0.68858 9064 ft 284 kts 199°
2026-04-30 22:08 38.23381 -0.69691 8743 ft 282 kts 199°
2026-04-30 22:09 38.21533 -0.70518 8435 ft 281 kts 199°
2026-04-30 22:09 38.19694 -0.71341 8117 ft 280 kts 199°
2026-04-30 22:09 38.17854 -0.72164 7807 ft 279 kts 199°
2026-04-30 22:09 38.16025 -0.72981 7495 ft 279 kts 199°
2026-04-30 22:10 38.14191 -0.73800 7183 ft 279 kts 199°
2026-04-30 22:10 38.12363 -0.74616 6855 ft 279 kts 199°
2026-04-30 22:10 38.10521 -0.75437 6518 ft 280 kts 199°
2026-04-30 22:10 38.08714 -0.76350 6167 ft 280 kts 210°
2026-04-30 22:11 38.05865 -0.79713 5494 ft 280 kts 225°
2026-04-30 22:11 38.04506 -0.81462 5268 ft 276 kts 225°
2026-04-30 22:11 38.03182 -0.83157 5183 ft 265 kts 224°
2026-04-30 22:12 38.01900 -0.84789 5077 ft 257 kts 224°
2026-04-30 22:12 38.00651 -0.86372 4937 ft 251 kts 224°
2026-04-30 22:12 37.99410 -0.87939 4772 ft 245 kts 224°
2026-04-30 22:12 37.98228 -0.89430 4620 ft 240 kts 224°
2026-04-30 22:13 37.97055 -0.90906 4459 ft 235 kts 224°
2026-04-30 22:13 37.95907 -0.92351 4316 ft 229 kts 224°
2026-04-30 22:13 37.94813 -0.93749 4180 ft 218 kts 224°
2026-04-30 22:13 37.93772 -0.95099 4011 ft 209 kts 225°
2026-04-30 22:14 37.92778 -0.96389 3849 ft 203 kts 224°
2026-04-30 22:14 37.91800 -0.97653 3599 ft 200 kts 224°
2026-04-30 22:14 37.90833 -0.98898 3347 ft 197 kts 224°
2026-04-30 22:14 37.89878 -1.00130 3081 ft 195 kts 224°
2026-04-30 22:15 37.88939 -1.01341 2828 ft 192 kts 225°
2026-04-30 22:15 37.88014 -1.02535 2563 ft 188 kts 224°
2026-04-30 22:15 37.87120 -1.03689 2346 ft 178 kts 225°
2026-04-30 22:15 37.86286 -1.04765 2127 ft 165 kts 225°
2026-04-30 22:16 37.85512 -1.05764 1901 ft 156 kts 225°
2026-04-30 22:16 37.84763 -1.06731 1696 ft 153 kts 225°
2026-04-30 22:17 37.82496 -1.09653 1069 ft 157 kts 227°
2026-04-30 22:17 37.81729 -1.10643 827 ft 158 kts 227°
2026-04-30 22:17 37.80324 -1.12458 647 ft 102 kts 225°
2026-04-30 22:18 37.80020 -1.12851 643 ft 36 kts 225°
2026-04-30 22:18 37.79893 -1.13192 649 ft 14 kts 261°
2026-04-30 22:19 37.80022 -1.13160 647 ft 13 kts 46°
2026-04-30 22:19 37.80090 -1.13087 647 ft 13 kts 13°
2026-04-30 22:19 37.80238 -1.13131 646 ft 13 kts 44°
2026-04-30 22:20 37.80281 -1.13104 646 ft 5 kts 336°
2026-04-30 22:20 37.80322 -1.13154 646 ft 2 kts 315°
2026-04-30 22:20 37.80323 -1.13155 646 ft 0 kts 315°